Wind_Speed
25 26 26 26 28 28 26 24 23 22 22 22 22 21 20 20 19 19 17 17 16 15 14 13 12 10 9 9 8 8 8 7 7 6 6 6 5 4 4 4 4 4 4 4 4 4 4 4 4
25 26 27 28 29 28 26 25 24 24 24 23 23 23 23 22 21 20 19 18 17 17 16 15 14 12 11 10 10 10 9 8 8 8 7 7 6 6 6 6 6 6 6 6 6 6 6 6 5
26 27 28 29 29 29 28 26 26 26 26 25 25 25 24 23 22 22 21 20 19 19 18 17 16 15 13 12 11 11 10 10 10 10 9 8 8 8 7 7 7 7 7 7 8 7 7 7 7
27 28 30 30 30 29 29 29 28 28 27 27 27 27 26 25 24 24 23 22 21 21 20 19 18 17 15 14 13 13 12 12 12 11 11 10 10 9 9 9 9 9 9 9 9 9 9 9 9
29 30 31 31 31 30 31 31 30 29 29 28 28 28 28 27 26 25 25 24 23 23 21 21 20 19 18 16 15 15 14 14 13 13 12 12 11 11 11 11 11 11 11 11 11 11 11 11 10
30 31 32 32 32 32 32 32 32 31 30 29 29 29 29 28 27 27 26 26 25 24 23 22 22 21 20 19 18 17 17 16 16 15 14 14 13 13 13 12 12 12 12 12 12 12 12 13 12
31 32 32 32 32 33 33 33 33 32 31 31 30 30 30 29 29 29 28 28 27 26 25 25 24 22 21 20 20 20 19 19 18 18 17 16 15 15 15 14 14 14 14 14 14 14 14 14 14
31 32 33 33 32 32 33 34 34 33 33 32 31 31 30 30 30 30 30 30 29 28 27 27 25 24 23 22 22 22 22 21 20 19 19 18 17 17 17 16 16 16 16 16 15 16 16 16 16
30 32 32 32 32 33 34 35 35 35 35 34 33 32 31 31 31 31 32 31 30 30 29 29 28 26 25 24 24 23 23 22 21 21 20 19 19 18 18 18 19 18 18 17 17 17 17 17 17
30 32 32 32 33 33 34 35 36 37 36 35 35 34 33 33 33 33 33 32 32 31 31 30 30 28 27 26 26 25 24 24 23 23 22 21 21 21 20 20 21 20 20 20 20 19 19 19 19
30 31 31 32 33 34 34 36 37 38 38 37 37 36 35 34 34 34 34 34 33 33 32 31 31 31 30 29 28 27 26 26 25 25 24 23 23 23 23 23 22 22 22 22 22 22 21 21 21
29 31 32 33 34 35 34 36 38 39 38 38 38 37 37 36 35 35 35 35 34 34 33 33 33 33 32 31 30 29 29 28 28 27 26 26 25 25 25 25 25 24 24 25 25 25 24 24 24
29 30 31 33 34 35 35 35 37 39 39 39 38 38 38 37 36 36 36 36 35 35 34 34 34 33 33 32 32 31 31 30 29 29 29 28 28 28 27 27 28 27 27 27 27 27 27 27 26
29 29 30 31 33 33 34 33 36 37 38 39 39 38 39 38 37 37 37 36 36 36 35 35 35 34 34 33 32 32 32 32 31 31 31 30 30 29 29 29 29 30 29 29 29 29 29 28 29
28 29 29 30 31 33 34 34 33 34 36 38 39 39 39 39 38 38 37 37 37 37 37 36 35 35 34 34 32 32 32 32 32 32 32 33 32 31 31 31 31 32 32 31 31 31 31 31 31
27 28 29 30 30 31 33 33 33 34 36 37 38 39 39 39 39 38 39 38 38 38 38 37 36 36 37 36 35 35 34 33 33 33 33 33 33 33 33 33 33 33 33 33 33 34 34 33 34
26 27 28 29 30 30 31 31 32 34 36 36 37 38 38 38 38 39 39 39 39 39 39 38 36 36 37 36 36 36 36 36 35 35 34 34 34 35 34 35 35 35 35 35 36 36 37 36 36
25 26 27 29 30 30 31 31 31 33 35 36 37 38 38 37 38 39 39 39 39 39 39 38 38 38 38 38 38 39 38 37 37 36 36 36 36 36 36 36 36 36 37 37 38 38 39 39 39
25 26 27 29 30 29 30 30 31 33 33 35 36 37 38 37 37 38 39 39 39 39 38 38 38 38 39 39 40 40 39 39 38 38 37 37 37 37 37 38 38 38 39 39 39 40 40 40 41
24 25 27 28 29 29 29 29 30 32 33 34 35 36 38 37 37 38 38 39 39 39 39 39 39 39 39 40 40 40 40 40 40 40 39 39 38 38 39 39 39 40 40 41 41 41 41 41 41
23 24 25 27 27 27 28 28 29 31 32 33 34 35 36 36 36 36 38 38 38 39 39 40 40 40 40 40 41 41 41 41 42 42 41 42 41 40 41 41 41 42 42 42 41 41 43 42 41
22 22 23 25 25 25 26 28 28 29 31 32 32 33 34 35 37 36 37 38 39 39 39 40 40 40 39 39 40 41 41 42 42 43 43 43 44 43 43 43 43 43 43 42 41 41 42 42 42
21 21 21 23 24 24 24 26 26 28 29 31 32 33 34 35 36 37 38 38 39 39 39 40 41 40 39 39 40 41 42 43 43 44 44 44 44 45 44 44 45 44 44 42 41 42 42 43 43
19 20 21 21 23 24 24 26 26 27 29 30 31 32 33 34 36 38 39 39 40 40 39 40 40 39 40 40 41 42 43 44 45 45 46 45 45 46 46 46 45 45 44 43 42 43 43 44 44
18 19 19 20 22 22 23 25 26 27 28 28 29 31 33 35 34 36 39 38 39 39 40 39 40 40 41 41 41 42 44 45 45 46 47 47 47 47 47 46 46 46 46 45 45 44 44 45 46
17 17 18 20 21 21 20 22 22 24 25 27 28 29 30 34 35 36 38 39 39 39 39 39 40 42 42 42 42 43 44 46 46 47 47 48 48 48 47 48 49 49 48 48 47 46 46 48 48
15 16 16 19 21 21 21 20 21 21 23 25 26 27 29 31 34 35 37 38 38 39 39 39 42 43 44 44 45 45 45 46 47 47 48 48 48 49 49 49 50 50 50 50 49 48 49 49 49
15 15 16 17 19 20 20 19 20 21 23 24 25 26 28 29 31 33 35 36 37 38 38 39 41 42 43 44 45 46 46 45 45 46 47 48 48 49 50 50 50 50 50 50 48 48 49 49 48
15 16 16 17 18 19 20 19 19 21 22 22 22 24 26 28 29 30 32 34 36 37 37 38 39 41 43 44 44 45 46 46 46 46 47 48 49 49 50 49 49 49 49 49 49 48 48 47 46
16 16 17 17 17 18 19 19 19 20 21 21 21 23 23 25 26 29 31 33 34 36 37 38 40 42 43 45 46 47 47 47 47 47 47 48 49 49 49 49 49 50 50 50 49 48 48 47 46
Wind_Direction
249 247 244 243 243 244 245 243 241 239 238 237 236 236 236 235 233 232 229 228 226 226 227 228 226 224 226 227 226 228 233 235 236 239 240 236 238 239 240 242 236 228 224 222 221 224 229 230 237
250 247 244 242 242 244 245 244 242 239 238 238 237 237 235 234 234 234 231 230 230 229 229 230 230 229 231 232 231 231 236 240 240 243 247 244 246 246 246 248 244 240 238 235 234 237 244 245 247
249 246 243 242 244 245 245 244 243 240 239 238 238 237 236 234 233 233 232 231 231 231 231 232 232 232 232 233 234 233 238 242 244 245 249 248 250 250 250 251 247 246 245 244 243 246 249 251 253
248 245 243 243 244 244 244 244 242 241 239 239 239 238 236 235 234 233 233 232 233 233 232 232 233 234 234 235 237 238 240 243 246 248 249 250 252 253 253 253 251 249 248 249 250 251 251 254 257
249 247 244 245 245 243 243 243 242 241 241 239 238 238 238 237 235 233 233 233 233 233 232 232 234 234 236 239 240 241 243 246 249 251 250 252 253 254 255 253 253 252 251 251 253 255 256 257 261
250 248 246 245 244 243 243 242 242 241 240 239 238 238 238 237 236 234 233 233 233 234 233 233 235 236 237 241 244 244 246 249 251 252 253 252 254 255 257 256 255 253 252 252 253 256 259 261 263
250 248 247 245 244 242 242 241 241 241 239 238 238 238 238 238 237 236 235 234 234 235 235 235 236 238 239 242 245 247 248 250 252 254 255 254 254 254 256 257 256 255 254 254 254 256 259 262 264
251 249 247 246 244 242 241 240 240 240 239 238 238 238 238 238 237 236 236 235 235 236 237 237 238 240 242 244 247 249 250 250 252 253 255 255 255 256 256 256 257 255 255 255 256 258 261 263 265
252 250 248 246 245 242 241 241 240 239 239 239 239 238 238 236 236 235 236 237 237 237 237 239 240 242 244 246 248 249 250 250 252 253 255 256 256 257 257 256 257 257 256 256 257 260 262 264 266
251 251 250 247 245 242 241 241 241 240 239 239 238 237 237 236 235 235 236 237 237 237 239 240 241 243 246 247 248 248 249 251 253 254 255 256 257 258 258 259 258 258 257 257 258 260 262 264 266
252 252 251 249 246 244 243 242 241 240 240 239 238 238 237 238 237 236 236 237 238 239 240 241 243 245 247 247 247 248 249 251 253 254 255 256 258 259 259 259 259 258 257 257 258 260 262 264 265
254 253 253 252 249 246 245 243 242 240 239 238 238 237 236 236 236 236 236 237 238 239 240 241 243 244 245 246 246 247 249 251 254 255 256 256 257 259 259 258 258 259 257 256 258 260 261 263 265
255 255 255 252 250 247 244 242 240 239 238 238 237 235 236 236 236 236 237 238 239 239 240 242 243 244 244 245 245 247 249 251 253 255 257 258 259 260 260 259 258 258 258 258 259 260 262 264 265
255 254 254 252 248 245 241 240 240 238 237 237 236 235 235 236 237 237 237 238 239 240 241 242 244 245 246 247 246 247 249 250 253 255 257 258 261 261 260 260 259 258 258 259 259 260 262 264 265
255 253 252 251 248 245 242 239 238 237 237 237 236 236 235 235 236 237 238 238 239 240 242 243 245 246 246 247 248 249 250 252 254 256 257 259 260 262 262 260 259 259 258 260 260 261 262 264 265
254 253 252 250 248 245 244 243 239 236 236 236 235 236 236 236 237 238 238 238 239 240 242 244 248 248 248 249 251 251 252 254 256 256 258 259 260 261 262 261 260 259 258 260 261 262 263 264 265
253 253 252 250 246 245 245 245 243 238 237 235 235 236 236 236 237 238 238 238 239 241 243 246 248 250 250 250 251 252 254 255 256 257 258 260 261 262 263 262 261 259 259 260 261 263 263 264 265
253 253 251 250 248 246 246 245 242 240 238 236 236 236 236 236 237 238 239 239 240 241 243 246 248 251 252 251 252 252 253 254 255 257 259 261 262 262 263 263 263 262 260 261 263 264 265 265 266
254 253 251 250 250 247 247 245 241 239 239 239 238 237 237 237 238 239 239 240 241 243 244 245 248 251 252 252 252 253 253 254 255 256 258 261 263 262 263 264 264 263 262 262 264 265 266 267 267
255 254 252 250 248 247 246 245 241 239 239 239 238 237 237 238 237 239 240 241 242 244 246 247 248 250 252 252 252 253 253 253 255 257 259 261 263 263 264 264 264 265 265 265 265 266 266 268 268
257 257 254 250 246 248 251 247 241 240 240 240 239 239 240 240 239 239 241 242 243 244 246 248 248 249 251 253 252 253 253 255 256 257 258 261 263 264 264 265 266 266 267 266 266 266 266 265 267
259 258 255 248 247 250 250 248 240 242 240 240 239 240 242 242 241 241 243 244 244 245 246 247 249 250 252 253 253 254 255 256 258 259 259 261 263 265 265 265 266 266 266 265 264 264 264 264 266
261 259 255 250 250 252 252 252 244 244 242 241 242 242 243 243 244 244 244 245 244 244 246 247 249 251 253 253 254 255 256 258 259 259 260 261 263 264 264 265 265 266 266 264 264 264 263 264 266
262 258 255 254 256 254 253 252 246 246 245 245 246 246 247 245 245 243 244 245 245 244 246 247 249 252 254 256 256 257 259 259 260 260 261 261 263 264 265 264 264 265 265 264 264 264 264 266 267
259 257 258 259 258 255 252 251 248 248 248 248 250 251 250 247 247 246 244 245 245 245 246 248 251 253 255 256 257 260 261 261 261 262 262 263 263 264 265 265 264 264 264 263 263 265 265 266 267
258 259 260 263 262 259 258 255 252 251 250 251 252 254 253 250 249 248 246 245 245 245 247 250 253 254 256 258 259 261 263 262 262 263 264 263 263 263 264 264 264 264 262 261 263 266 266 267 268
258 258 260 264 262 263 264 262 255 254 255 253 253 254 253 251 252 251 248 245 245 246 249 251 254 256 258 260 262 263 264 264 264 264 265 265 263 263 263 264 264 263 262 261 263 266 266 267 268
257 258 261 263 265 266 266 264 264 258 258 258 257 257 256 253 253 252 249 245 247 249 251 254 256 257 259 262 263 264 264 264 265 266 266 266 265 264 263 265 264 263 262 263 265 265 266 267 267
258 257 260 262 264 269 269 266 267 266 263 261 259 258 256 254 254 254 251 249 250 252 254 258 258 259 262 264 265 266 266 266 266 266 267 267 267 266 264 265 264 262 262 262 263 264 265 266 267
259 259 259 262 266 267 271 274 271 267 265 263 264 264 263 261 259 256 254 253 254 256 257 260 262 264 265 266 266 266 267 268 268 268 269 269 268 267 267 265 262 261 261 262 263 263 264 265 266
Height
5833 5834 5835 5836 5838 5839 5841 5843 5845 5848 5850 5851 5853 5854 5856 5858 5860 5862 5862 5862 5863 5864 5865 5866 5867 5867 5868 5869 5869 5870 5870 5870 5870 5870 5870 5870 5870 5870 5870 5869 5869 5869 5869 5869 5869 5869 5869 5869 5869
5827 5828 5830 5831 5831 5833 5837 5839 5841 5843 5845 5847 5848 5850 5852 5853 5855 5856 5858 5859 5860 5862 5863 5864 5865 5865 5866 5867 5867 5868 5868 5868 5869 5869 5869 5869 5869 5868 5868 5868 5868 5868 5868 5868 5868 5868 5868 5868 5867
5821 5822 5823 5824 5825 5829 5832 5834 5836 5838 5840 5842 5844 5845 5847 5849 5851 5852 5854 5856 5857 5859 5860 5861 5862 5863 5864 5864 5865 5866 5866 5867 5867 5867 5867 5867 5867 5867 5867 5867 5867 5867 5867 5867 5867 5867 5866 5866 5866
5814 5815 5816 5818 5820 5823 5826 5828 5830 5832 5835 5837 5839 5840 5842 5845 5847 5848 5850 5852 5854 5855 5857 5858 5859 5860 5861 5862 5863 5863 5864 5864 5865 5865 5865 5865 5865 5865 5865 5865 5865 5865 5865 5865 5865 5865 5865 5865 5865
5807 5808 5809 5811 5813 5816 5819 5821 5823 5826 5829 5831 5834 5836 5838 5840 5842 5844 5846 5848 5850 5852 5853 5854 5856 5857 5858 5859 5860 5861 5861 5862 5862 5862 5862 5863 5863 5863 5863 5863 5863 5863 5863 5863 5863 5863 5863 5863 5863
5800 5800 5802 5804 5806 5809 5812 5814 5817 5820 5823 5825 5828 5830 5832 5835 5837 5840 5842 5843 5845 5847 5849 5850 5852 5853 5854 5856 5857 5857 5858 5858 5859 5859 5859 5860 5860 5860 5860 5860 5860 5860 5860 5860 5861 5861 5861 5861 5861
5792 5793 5794 5797 5799 5802 5805 5807 5810 5813 5816 5819 5821 5824 5826 5829 5832 5834 5837 5839 5841 5843 5845 5846 5848 5848 5849 5851 5853 5854 5854 5855 5855 5855 5856 5856 5856 5857 5857 5857 5857 5857 5857 5858 5858 5858 5858 5858 5858
5783 5785 5786 5788 5791 5794 5797 5799 5802 5806 5809 5812 5815 5818 5820 5823 5826 5828 5831 5833 5836 5838 5840 5841 5843 5844 5845 5847 5848 5849 5850 5851 5851 5851 5852 5852 5853 5853 5853 5853 5853 5854 5854 5854 5855 5855 5855 5855 5855
5775 5778 5778 5781 5784 5787 5789 5791 5794 5798 5801 5804 5808 5811 5814 5817 5819 5822 5825 5827 5830 5832 5834 5836 5838 5839 5841 5842 5843 5844 5845 5846 5847 5847 5848 5848 5848 5849 5849 5849 5849 5849 5850 5850 5851 5851 5851 5851 5851
5768 5769 5772 5774 5776 5778 5781 5783 5787 5790 5793 5797 5800 5804 5807 5810 5813 5816 5818 5821 5824 5826 5829 5831 5832 5834 5835 5837 5838 5839 5840 5841 5842 5843 5843 5844 5844 5844 5844 5845 5845 5845 5845 5846 5846 5847 5847 5847 5847
5761 5763 5765 5766 5767 5770 5772 5775 5778 5781 5786 5790 5793 5796 5800 5803 5806 5809 5812 5815 5817 5820 5822 5824 5827 5828 5829 5831 5832 5833 5835 5836 5837 5838 5838 5839 5839 5839 5839 5839 5840 5840 5840 5841 5841 5842 5842 5842 5842
5754 5756 5757 5758 5759 5761 5763 5766 5769 5773 5778 5782 5785 5788 5792 5796 5799 5802 5805 5808 5810 5813 5815 5818 5820 5821 5823 5824 5826 5827 5829 5830 5831 5832 5832 5833 5833 5834 5834 5834 5834 5834 5835 5835 5836 5836 5837 5837 5837
5747 5748 5749 5750 5751 5752 5754 5757 5760 5764 5769 5772 5776 5780 5784 5788 5791 5795 5798 5800 5803 5806 5808 5810 5812 5814 5816 5817 5819 5821 5822 5824 5825 5826 5826 5826 5827 5827 5827 5827 5827 5828 5828 5829 5830 5830 5830 5831 5831
5739 5740 5741 5742 5743 5744 5746 5749 5752 5757 5760 5764 5768 5772 5776 5780 5783 5787 5790 5793 5796 5799 5801 5803 5805 5807 5809 5810 5812 5814 5815 5817 5818 5818 5819 5819 5820 5819 5819 5820 5820 5821 5822 5822 5823 5823 5824 5824 5824
5732 5733 5734 5735 5735 5737 5739 5742 5745 5749 5752 5755 5759 5763 5768 5772 5775 5779 5783 5786 5788 5791 5794 5796 5798 5799 5801 5803 5805 5806 5808 5809 5810 5811 5811 5811 5812 5811 5812 5812 5812 5813 5814 5815 5815 5816 5817 5817 5817
5725 5726 5727 5728 5729 5730 5733 5735 5739 5741 5744 5747 5751 5755 5759 5763 5767 5771 5774 5777 5780 5783 5786 5788 5790 5791 5793 5795 5797 5798 5800 5801 5802 5802 5803 5803 5803 5803 5803 5804 5804 5804 5806 5807 5807 5808 5809 5809 5809
5718 5719 5720 5721 5722 5723 5726 5728 5731 5733 5736 5739 5743 5747 5751 5755 5759 5762 5765 5769 5772 5775 5777 5780 5782 5783 5785 5787 5788 5790 5791 5792 5793 5794 5794 5794 5794 5794 5794 5795 5795 5796 5797 5798 5799 5799 5800 5800 5800
5712 5713 5713 5714 5715 5717 5719 5721 5724 5725 5728 5732 5735 5739 5742 5746 5750 5753 5756 5759 5763 5766 5768 5771 5773 5775 5776 5778 5780 5781 5782 5784 5785 5785 5786 5786 5785 5785 5786 5786 5786 5787 5788 5789 5790 5790 5790 5790 5791
5706 5706 5707 5708 5709 5710 5712 5715 5717 5718 5721 5724 5727 5730 5734 5738 5741 5744 5747 5750 5754 5756 5759 5762 5764 5766 5767 5769 5771 5772 5774 5775 5776 5776 5777 5777 5777 5777 5777 5777 5777 5778 5779 5779 5780 5780 5780 5780 5780
5700 5700 5701 5702 5703 5704 5706 5708 5710 5711 5714 5717 5719 5723 5726 5729 5732 5735 5738 5741 5744 5748 5750 5753 5755 5757 5758 5760 5761 5763 5764 5766 5767 5767 5768 5768 5768 5768 5768 5768 5768 5768 5769 5769 5769 5769 5769 5770 5769
5694 5695 5696 5696 5697 5698 5700 5702 5704 5705 5707 5709 5712 5715 5717 5720 5724 5727 5730 5732 5735 5738 5741 5744 5746 5748 5749 5750 5752 5753 5755 5756 5757 5758 5758 5759 5758 5758 5758 5758 5758 5758 5758 5758 5759 5758 5759 5759 5759
5689 5690 5690 5691 5692 5693 5694 5694 5698 5699 5700 5702 5705 5707 5709 5712 5715 5718 5721 5723 5726 5729 5732 5734 5737 5738 5740 5741 5742 5744 5745 5747 5748 5748 5748 5748 5748 5748 5747 5747 5747 5747 5747 5747 5748 5748 5748 5748 5749
5684 5685 5685 5686 5686 5687 5688 5688 5692 5692 5693 5695 5698 5700 5702 5704 5706 5709 5711 5714 5717 5720 5722 5725 5727 5729 5730 5731 5733 5734 5735 5736 5737 5737 5738 5738 5738 5737 5736 5736 5736 5736 5736 5737 5737 5737 5737 5738 5738
5680 5681 5681 5681 5681 5682 5683 5683 5684 5686 5687 5689 5690 5691 5693 5695 5697 5699 5702 5704 5707 5710 5713 5715 5717 5719 5720 5722 5722 5723 5724 5725 5725 5726 5726 5727 5727 5726 5726 5725 5725 5725 5725 5726 5727 5727 5727 5728 5728
5675 5676 5676 5676 5675 5676 5677 5676 5678 5679 5681 5682 5683 5684 5685 5686 5688 5689 5692 5694 5698 5700 5703 5705 5707 5709 5710 5711 5712 5712 5713 5713 5713 5714 5714 5714 5714 5715 5714 5714 5714 5714 5714 5715 5715 5715 5716 5717 5717
5671 5672 5672 5672 5671 5671 5671 5670 5673 5673 5674 5675 5676 5676 5676 5677 5679 5680 5682 5685 5688 5691 5693 5696 5698 5699 5700 5700 5700 5701 5701 5701 5701 5701 5701 5702 5702 5702 5702 5702 5702 5702 5703 5703 5703 5703 5704 5705 5705
5667 5667 5668 5667 5666 5666 5666 5666 5667 5668 5668 5668 5669 5669 5669 5670 5670 5672 5674 5676 5679 5682 5684 5686 5687 5688 5689 5689 5689 5689 5689 5689 5689 5688 5688 5688 5689 5689 5689 5688 5689 5689 5690 5690 5690 5691 5692 5692 5692
5663 5663 5663 5662 5661 5661 5662 5662 5663 5662 5662 5663 5663 5663 5663 5663 5664 5664 5665 5667 5670 5672 5674 5675 5676 5677 5677 5677 5677 5677 5676 5676 5675 5675 5675 5675 5675 5675 5675 5675 5675 5676 5676 5677 5677 5678 5679 5678 5679
5659 5659 5658 5658 5658 5657 5657 5660 5658 5657 5657 5657 5658 5658 5657 5657 5657 5658 5658 5659 5661 5663 5664 5665 5665 5666 5666 5665 5665 5664 5664 5663 5662 5661 5661 5661 5661 5661 5661 5661 5661 5662 5663 5663 5664 5665 5665 5666 5666
5654 5654 5654 5655 5654 5653 5652 5656 5653 5652 5652 5652 5652 5652 5651 5651 5651 5650 5650 5652 5653 5654 5655 5655 5655 5654 5654 5653 5652 5651 5651 5650 5649 5648 5648 5647 5647 5646 5647 5647 5647 5648 5649 5650 5651 5652 5653 5653 5653